| time (UTC) | temp F | wind direction | speed knots | gust knots | rain 1hr in | rain 24hr in | rain mn in | humidity % | barometer mb |
| 20260509222905 | 52 | 150 | 0.0 | 1.7 | 0.00 | 0.00 | 0.00 | 98 | 1007.7 |
| 20260509222401 | 52 | 195 | 0.0 | 0.9 | 0.00 | 0.00 | 0.00 | 98 | 1007.6 |
| 20260509221856 | 52 | 72 | 0.9 | 0.9 | 0.00 | 0.00 | 0.00 | 98 | 1007.6 |
| 20260509221353 | 53 | 140 | 0.0 | 0.9 | 0.00 | 0.00 | 0.00 | 98 | 1007.6 |
| 20260509220849 | 53 | 168 | 0.0 | 1.7 | 0.00 | 0.00 | 0.00 | 98 | 1008.1 |
| 20260509220345 | 53 | 154 | 0.0 | 1.7 | 0.00 | 0.00 | 0.00 | 98 | 1008.3 |
| 20260509215841 | 53 | 198 | 0.9 | 1.7 | 0.00 | 0.00 | 0.00 | 97 | 1008.5 |
| 20260509215338 | 53 | 143 | 0.9 | 1.7 | 0.00 | 0.00 | 0.00 | 97 | 1008.6 |
| 20260509214835 | 53 | 152 | 0.9 | 1.7 | 0.00 | 0.00 | 0.00 | 97 | 1009.0 |
| 20260509214332 | 52 | 148 | 0.0 | 0.9 | 0.00 | 0.00 | 0.00 | 97 | 1009.3 |
| 20260509213829 | 52 | 144 | 0.9 | 1.7 | 0.00 | 0.00 | 0.00 | 97 | 1009.3 |
| 20260509213324 | 52 | 230 | 0.0 | 1.7 | 0.00 | 0.00 | 0.00 | 98 | 1009.4 |
| 20260509212822 | 53 | 149 | 0.0 | 1.7 | 0.00 | 0.00 | 0.00 | 98 | 1009.4 |
| 20260509212320 | 53 | 229 | 0.0 | 1.7 | 0.00 | 0.00 | 0.00 | 98 | 1009.5 |
| 20260509211815 | 53 | 229 | 0.0 | 0.9 | 0.00 | 0.00 | 0.00 | 97 | 1009.5 |
| 20260509211311 | 53 | 139 | 1.7 | 2.6 | 0.00 | 0.00 | 0.00 | 98 | 1009.5 |
| 20260509210808 | 53 | 266 | 0.0 | 1.7 | 0.00 | 0.00 | 0.00 | 97 | 1009.8 |
| 20260509210306 | 53 | 148 | 0.9 | 1.7 | 0.00 | 0.00 | 0.00 | 97 | 1009.6 |
| 20260509205805 | 53 | 129 | 1.7 | 2.6 | 0.00 | 0.00 | 0.00 | 97 | 1010.0 |
| 20260509205300 | 53 | 118 | 0.0 | 1.7 | 0.00 | 0.00 | 0.00 | 97 | 1010.2 |
| 20260509204756 | 53 | 124 | 0.0 | 0.9 | 0.00 | 0.00 | 0.00 | 97 | 1010.0 |
| 20260509204253 | 53 | 174 | 0.0 | 1.7 | 0.00 | 0.00 | 0.00 | 97 | 1010.2 |
| 20260509203749 | 53 | 149 | 0.9 | 1.7 | 0.00 | 0.00 | 0.00 | 97 | 1010.3 |
| 20260509203247 | 54 | 192 | 0.9 | 1.7 | 0.00 | 0.00 | 0.00 | 97 | 1010.4 |
| 20260509202742 | 53 | 180 | 0.0 | 1.7 | 0.00 | 0.00 | 0.00 | 96 | 1010.4 |
| 20260509202238 | 54 | 174 | 0.0 | 0.9 | 0.00 | 0.00 | 0.00 | 95 | 1010.7 |
| 20260509201733 | 55 | 195 | 0.0 | 0.0 | 0.00 | 0.00 | 0.00 | 95 | 1010.6 |
| 20260509201230 | 55 | 213 | 0.0 | 1.7 | 0.00 | 0.00 | 0.00 | 95 | 1010.5 |
| 20260509200726 | 55 | 132 | 0.0 | 0.9 | 0.00 | 0.00 | 0.00 | 94 | 1010.8 |
| 20260509200221 | 56 | 156 | 0.0 | 1.7 | 0.00 | 0.00 | 0.00 | 93 | 1010.9 |
| 20260509195717 | 56 | 121 | 0.9 | 1.7 | 0.00 | 0.00 | 0.00 | 92 | 1010.8 |
| 20260509195213 | 57 | 121 | 1.7 | 1.7 | 0.00 | 0.00 | 0.00 | 91 | 1010.9 |
| 20260509194707 | 57 | 59 | 0.9 | 1.7 | 0.00 | 0.00 | 0.00 | 91 | 1010.8 |
| 20260509194204 | 57 | 128 | 1.7 | 1.7 | 0.00 | 0.00 | 0.00 | 91 | 1010.9 |
| 20260509193700 | 57 | 80 | 1.7 | 1.7 | 0.00 | 0.00 | 0.00 | 91 | 1011.0 |
| 20260509193155 | 57 | 87 | 2.6 | 2.6 | 0.00 | 0.00 | 0.00 | 93 | 1011.0 |
| 20260509192652 | 57 | 125 | 0.0 | 2.6 | 0.00 | 0.00 | 0.00 | 94 | 1011.2 |
| 20260509192147 | 57 | 96 | 1.7 | 2.6 | 0.00 | 0.00 | 0.00 | 96 | 1011.2 |
| 20260509191647 | 57 | 109 | 1.7 | 1.7 | 0.00 | 0.00 | 0.00 | 97 | 1011.2 |
| 20260509191144 | 57 | 72 | 0.0 | 2.6 | 0.00 | 0.00 | 0.00 | 97 | 1011.4 |
| 20260509190641 | 57 | 125 | 0.0 | 0.9 | 0.00 | 0.00 | 0.00 | 97 | 1011.4 |
| 20260509190138 | 57 | 90 | 0.9 | 1.7 | 0.00 | 0.00 | 0.00 | 97 | 1011.4 |
| 20260509185636 | 57 | 70 | 0.9 | 2.6 | 0.00 | 0.00 | 0.00 | 97 | 1011.6 |
| 20260509185131 | 57 | 112 | 1.7 | 2.6 | 0.00 | 0.00 | 0.00 | 97 | 1011.6 |
| 20260509184630 | 56 | 104 | 1.7 | 1.7 | 0.00 | 0.00 | 0.00 | 97 | 1011.7 |
| 20260509184126 | 57 | 135 | 0.9 | 2.6 | 0.00 | 0.00 | 0.00 | 97 | 1011.8 |
| 20260509183622 | 56 | 102 | 0.9 | 1.7 | 0.00 | 0.00 | 0.00 | 96 | 1011.8 |
| 20260509183118 | 56 | 154 | 0.9 | 1.7 | 0.00 | 0.00 | 0.00 | 96 | 1011.8 |
| 20260509182614 | 56 | 145 | 0.9 | 1.7 | 0.00 | 0.00 | 0.00 | 96 | 1011.7 |
| 20260509182111 | 57 | 182 | 0.0 | 1.7 | 0.00 | 0.00 | 0.00 | 95 | 1011.8 |
| 20260509181609 | 57 | 118 | 0.0 | 1.7 | 0.00 | 0.00 | 0.00 | 95 | 1012.1 |
| 20260509181106 | 57 | 144 | 0.9 | 1.7 | 0.00 | 0.00 | 0.00 | 95 | 1012.1 |
| 20260509180602 | 57 | 153 | 0.9 | 1.7 | 0.00 | 0.00 | 0.00 | 95 | 1012.3 |
| 20260509180100 | 57 | 139 | 0.0 | 1.7 | 0.00 | 0.00 | 0.00 | 95 | 1012.1 |
| 20260509175555 | 57 | 131 | 1.7 | 1.7 | 0.00 | 0.00 | 0.00 | 95 | 1012.0 |
| 20260509175052 | 57 | 115 | 0.9 | 2.6 | 0.00 | 0.00 | 0.00 | 94 | 1012.4 |
| 20260509174548 | 57 | 126 | 0.9 | 1.7 | 0.00 | 0.00 | 0.00 | 95 | 1012.2 |
| 20260509174043 | 57 | 153 | 0.9 | 0.9 | 0.00 | 0.00 | 0.00 | 94 | 1012.3 |
| 20260509173538 | 56 | 182 | 0.0 | 0.9 | 0.00 | 0.00 | 0.00 | 94 | 1012.3 |
| 20260509173035 | 57 | 72 | 0.0 | 0.0 | 0.00 | 0.00 | 0.00 | 93 | 1012.4 |
| 20260509172532 | 57 | 129 | 0.0 | 0.9 | 0.00 | 0.00 | 0.00 | 93 | 1012.3 |
| 20260509172027 | 57 | 185 | 0.0 | 0.0 | 0.00 | 0.00 | 0.00 | 92 | 1012.5 |
| 20260509171524 | 58 | 213 | 0.0 | 0.9 | 0.00 | 0.00 | 0.00 | 92 | 1012.5 |
| 20260509171020 | 58 | 125 | 0.0 | 0.0 | 0.00 | 0.00 | 0.00 | 91 | 1012.4 |
| 20260509170516 | 59 | 102 | 0.0 | 2.6 | 0.00 | 0.00 | 0.00 | 90 | 1012.4 |
| 20260509170012 | 59 | 92 | 0.0 | 1.7 | 0.00 | 0.00 | 0.00 | 90 | 1012.2 |
| 20260509165511 | 59 | 112 | 0.0 | 1.7 | 0.00 | 0.00 | 0.00 | 89 | 1012.2 |
| 20260509165006 | 59 | 90 | 0.9 | 1.7 | 0.00 | 0.00 | 0.00 | 88 | 1012.4 |
| 20260509164503 | 59 | 111 | 1.7 | 1.7 | 0.00 | 0.00 | 0.00 | 88 | 1012.1 |
| 20260509163958 | 59 | 43 | 0.0 | 0.9 | 0.00 | 0.00 | 0.00 | 88 | 1012.3 |
| 20260509163456 | 59 | 42 | 1.7 | 1.7 | 0.00 | 0.00 | 0.00 | 87 | 1012.5 |
| 20260509162955 | 59 | 72 | 0.0 | 1.7 | 0.00 | 0.00 | 0.00 | 86 | 1012.4 |
| 20260509162454 | 59 | 96 | 0.0 | 0.9 | 0.00 | 0.00 | 0.00 | 86 | 1012.4 |
| 20260509161950 | 59 | 72 | 0.0 | 0.9 | 0.00 | 0.00 | 0.00 | 85 | 1012.4 |
| 20260509161446 | 60 | 72 | 1.7 | 1.7 | 0.00 | 0.00 | 0.00 | 84 | 1012.2 |
| 20260509160942 | 60 | 82 | 1.7 | 1.7 | 0.00 | 0.00 | 0.00 | 84 | 1012.4 |
| 20260509160438 | 60 | 102 | 0.0 | 2.6 | 0.00 | 0.00 | 0.00 | 83 | 1012.3 |
| 20260509155933 | 60 | 87 | 1.7 | 2.6 | 0.00 | 0.00 | 0.00 | 83 | 1012.2 |
| 20260509155430 | 60 | 110 | 0.9 | 2.6 | 0.00 | 0.00 | 0.00 | 82 | 1012.3 |
| 20260509154926 | 61 | 123 | 1.7 | 2.6 | 0.00 | 0.00 | 0.00 | 82 | 1012.4 |
| 20260509154423 | 61 | 104 | 2.6 | 2.6 | 0.00 | 0.00 | 0.00 | 81 | 1012.3 |
| 20260509153920 | 61 | 78 | 1.7 | 1.7 | 0.00 | 0.00 | 0.00 | 80 | 1012.4 |
| 20260509153417 | 61 | 115 | 2.6 | 2.6 | 0.00 | 0.00 | 0.00 | 79 | 1012.4 |
| 20260509152914 | 62 | 79 | 1.7 | 2.6 | 0.00 | 0.00 | 0.00 | 77 | 1012.4 |
| 20260509152409 | 62 | 100 | 2.6 | 3.5 | 0.00 | 0.00 | 0.00 | 76 | 1012.3 |
| 20260509151907 | 63 | 88 | 1.7 | 3.5 | 0.00 | 0.00 | 0.00 | 73 | 1012.5 |
| 20260509151403 | 64 | 124 | 1.7 | 2.6 | 0.00 | 0.00 | 0.00 | 71 | 1012.3 |
| 20260509150901 | 64 | 118 | 3.5 | 4.3 | 0.00 | 0.00 | 0.00 | 70 | 1012.4 |
| 20260509150358 | 64 | 133 | 2.6 | 2.6 | 0.00 | 0.00 | 0.00 | 69 | 1012.2 |
| 20260509145856 | 65 | 102 | 5.2 | 5.2 | 0.00 | 0.00 | 0.00 | 67 | 1012.6 |
| 20260509145350 | 65 | 120 | 2.6 | 4.3 | 0.00 | 0.00 | 0.00 | 67 | 1012.2 |
| 20260509144847 | 66 | 129 | 2.6 | 3.5 | 0.00 | 0.00 | 0.00 | 67 | 1012.4 |
| 20260509144344 | 66 | 112 | 0.9 | 2.6 | 0.00 | 0.00 | 0.00 | 66 | 1012.4 |
| 20260509143841 | 66 | 103 | 2.6 | 5.2 | 0.00 | 0.00 | 0.00 | 64 | 1012.3 |
| 20260509143338 | 66 | 114 | 1.7 | 8.7 | 0.00 | 0.00 | 0.00 | 65 | 1012.3 |
| 20260509142834 | 66 | 143 | 1.7 | 5.2 | 0.00 | 0.00 | 0.00 | 64 | 1012.4 |
| 20260509142331 | 66 | 118 | 4.3 | 6.1 | 0.00 | 0.00 | 0.00 | 62 | 1012.4 |
| 20260509141826 | 66 | 112 | 4.3 | 6.1 | 0.00 | 0.00 | 0.00 | 63 | 1012.4 |
| 20260509141328 | 66 | 125 | 1.7 | 6.1 | 0.00 | 0.00 | 0.00 | 63 | 1012.5 |
| 20260509140820 | 67 | 135 | 1.7 | 5.2 | 0.00 | 0.00 | 0.00 | 63 | 1012.5 |
| 20260509140317 | 66 | 89 | 3.5 | 7.0 | 0.00 | 0.00 | 0.00 | 65 | 1012.4 |
| 20260509135815 | 66 | 133 | 1.7 | 7.8 | 0.00 | 0.00 | 0.00 | 67 | 1012.6 |
| 20260509135312 | 67 | 139 | 3.5 | 4.3 | 0.00 | 0.00 | 0.00 | 66 | 1012.5 |
| 20260509134809 | 67 | 106 | 3.5 | 6.1 | 0.00 | 0.00 | 0.00 | 65 | 1012.6 |
| 20260509134307 | 67 | 131 | 2.6 | 4.3 | 0.00 | 0.00 | 0.00 | 65 | 1012.7 |
| 20260509133804 | 68 | 132 | 2.6 | 6.1 | 0.00 | 0.00 | 0.00 | 65 | 1012.7 |
| 20260509133300 | 68 | 100 | 2.6 | 2.6 | 0.00 | 0.00 | 0.00 | 64 | 1012.5 |
| 20260509132759 | 68 | 161 | 0.9 | 4.3 | 0.00 | 0.00 | 0.00 | 64 | 1012.7 |
| 20260509132257 | 68 | 137 | 1.7 | 7.0 | 0.00 | 0.00 | 0.00 | 65 | 1012.9 |
| 20260509131753 | 68 | 170 | 3.5 | 4.3 | 0.00 | 0.00 | 0.00 | 64 | 1013.0 |
| 20260509131250 | 68 | 142 | 1.7 | 5.2 | 0.00 | 0.00 | 0.00 | 64 | 1012.9 |
| 20260509130747 | 68 | 163 | 2.6 | 3.5 | 0.00 | 0.00 | 0.00 | 65 | 1012.8 |
| 20260509130242 | 68 | 165 | 2.6 | 6.1 | 0.00 | 0.00 | 0.00 | 65 | 1012.8 |
| 20260509125739 | 68 | 130 | 4.3 | 7.0 | 0.00 | 0.00 | 0.00 | 65 | 1012.6 |
| 20260509125236 | 68 | 119 | 3.5 | 4.3 | 0.00 | 0.00 | 0.00 | 64 | 1012.8 |
| 20260509124732 | 69 | 148 | 0.0 | 3.5 | 0.00 | 0.00 | 0.00 | 64 | 1012.7 |
| 20260509124229 | 68 | 163 | 1.7 | 5.2 | 0.00 | 0.00 | 0.00 | 65 | 1012.9 |
| 20260509123727 | 68 | 135 | 3.5 | 5.2 | 0.00 | 0.00 | 0.00 | 64 | 1012.8 |
| 20260509123224 | 68 | 138 | 1.7 | 4.3 | 0.00 | 0.00 | 0.00 | 65 | 1012.8 |
| 20260509122720 | 68 | 167 | 4.3 | 6.1 | 0.00 | 0.00 | 0.00 | 66 | 1013.1 |
| 20260509122217 | 69 | 146 | 4.3 | 4.3 | 0.00 | 0.00 | 0.00 | 64 | 1012.9 |
| 20260509121713 | 69 | 142 | 2.6 | 4.3 | 0.00 | 0.00 | 0.00 | 67 | 1013.0 |
| 20260509121211 | 68 | 156 | 2.6 | 6.1 | 0.00 | 0.00 | 0.00 | 67 | 1013.0 |
| 20260509120709 | 68 | 161 | 3.5 | 7.0 | 0.00 | 0.00 | 0.00 | 67 | 1013.2 |
| 20260509120207 | 69 | 154 | 4.3 | 4.3 | 0.00 | 0.00 | 0.00 | 66 | 1013.2 |
| 20260509115704 | 68 | 166 | 4.3 | 6.1 | 0.00 | 0.00 | 0.00 | 64 | 1013.2 |
| 20260509115201 | 68 | 209 | 2.6 | 4.3 | 0.00 | 0.00 | 0.00 | 66 | 1013.1 |
| 20260509114700 | 69 | 149 | 5.2 | 7.0 | 0.00 | 0.00 | 0.00 | 65 | 1013.2 |
| 20260509114158 | 68 | 158 | 2.6 | 4.3 | 0.00 | 0.00 | 0.00 | 64 | 1013.5 |
| 20260509113656 | 68 | 172 | 1.7 | 5.2 | 0.00 | 0.00 | 0.00 | 65 | 1013.3 |
| 20260509113153 | 69 | 190 | 1.7 | 4.3 | 0.00 | 0.00 | 0.00 | 63 | 1013.3 |
| 20260509112650 | 69 | 160 | 2.6 | 3.5 | 0.00 | 0.00 | 0.00 | 62 | 1013.5 |
| 20260509112147 | 71 | 105 | 1.7 | 2.6 | 0.00 | 0.00 | 0.00 | 51 | 1013.5 |
| 20260509111644 | 70 | 116 | 1.7 | 2.6 | 0.00 | 0.00 | 0.00 | 52 | 1013.8 |
| 20260509111140 | 70 | 71 | 1.7 | 2.6 | 0.00 | 0.00 | 0.00 | 52 | 1013.7 |
| 20260509110638 | 71 | 102 | 1.7 | 1.7 | 0.00 | 0.00 | 0.00 | 52 | 1013.7 |
| 20260509110135 | 71 | 99 | 1.7 | 2.6 | 0.00 | 0.00 | 0.00 | 53 | 1014.0 |
| 20260509105633 | 71 | 343 | 1.7 | 2.6 | 0.00 | 0.00 | 0.00 | 52 | 1014.1 |
| 20260509105130 | 71 | 57 | 2.6 | 3.5 | 0.00 | 0.00 | 0.00 | 50 | 1014.1 |
| 20260509104627 | 70 | 207 | 0.0 | 2.6 | 0.00 | 0.00 | 0.00 | 53 | 1014.1 |
| 20260509104124 | 69 | 108 | 2.6 | 4.3 | 0.00 | 0.00 | 0.00 | 56 | 1014.3 |
| 20260509103622 | 69 | 118 | 3.5 | 4.3 | 0.00 | 0.00 | 0.00 | 55 | 1014.4 |
| 20260509103120 | 68 | 159 | 0.0 | 2.6 | 0.00 | 0.00 | 0.00 | 58 | 1014.4 |
| 20260509102617 | 68 | 217 | 3.5 | 4.3 | 0.00 | 0.00 | 0.00 | 55 | 1014.7 |
| 20260509102114 | 69 | 338 | 0.0 | 1.7 | 0.00 | 0.00 | 0.00 | 56 | 1014.7 |
| 20260509101610 | 69 | 83 | 0.0 | 3.5 | 0.00 | 0.00 | 0.00 | 58 | 1014.8 |
| 20260509101107 | 68 | 81 | 2.6 | 4.3 | 0.00 | 0.00 | 0.00 | 58 | 1014.8 |
| 20260509100604 | 69 | 339 | 2.6 | 3.5 | 0.00 | 0.00 | 0.00 | 56 | 1015.3 |
| 20260509095557 | 68 | 315 | 2.6 | 3.5 | 0.00 | 0.00 | 0.00 | 57 | 1015.2 |
| 20260509095055 | 68 | 319 | 3.5 | 4.3 | 0.00 | 0.00 | 0.00 | 57 | 1015.2 |
| 20260509094551 | 68 | 125 | 1.7 | 2.6 | 0.00 | 0.00 | 0.00 | 56 | 1015.4 |
| 20260509094049 | 68 | 1 | 2.6 | 6.1 | 0.00 | 0.00 | 0.00 | 59 | 1015.4 |
| 20260509093547 | 68 | 105 | 2.6 | 3.5 | 0.00 | 0.00 | 0.00 | 58 | 1015.6 |
| 20260509093044 | 69 | 47 | 2.6 | 2.6 | 0.00 | 0.00 | 0.00 | 58 | 1015.7 |
| 20260509092542 | 68 | 48 | 2.6 | 2.6 | 0.00 | 0.00 | 0.00 | 59 | 1015.7 |
| 20260509092041 | 67 | 25 | 1.7 | 3.5 | 0.00 | 0.00 | 0.00 | 62 | 1015.7 |
| 20260509091537 | 67 | 329 | 2.6 | 4.3 | 0.00 | 0.00 | 0.00 | 62 | 1015.8 |
| 20260509091034 | 68 | 26 | 1.7 | 2.6 | 0.00 | 0.00 | 0.00 | 61 | 1015.9 |
| 20260509090531 | 68 | 26 | 1.7 | 3.5 | 0.00 | 0.00 | 0.00 | 60 | 1016.1 |
| 20260509090029 | 68 | 341 | 3.5 | 3.5 | 0.00 | 0.00 | 0.00 | 59 | 1016.1 |
| 20260509085526 | 67 | 212 | 0.0 | 1.7 | 0.00 | 0.00 | 0.00 | 56 | 1016.3 |
| 20260509085022 | 67 | 23 | 1.7 | 2.6 | 0.00 | 0.00 | 0.00 | 58 | 1016.2 |
| 20260509084519 | 67 | 60 | 0.9 | 3.5 | 0.00 | 0.00 | 0.00 | 61 | 1016.3 |
| 20260509084016 | 67 | 278 | 2.6 | 2.6 | 0.00 | 0.00 | 0.00 | 59 | 1016.5 |
| 20260509083514 | 67 | 252 | 0.0 | 2.6 | 0.00 | 0.00 | 0.00 | 59 | 1016.5 |
| 20260509083010 | 67 | 236 | 2.6 | 2.6 | 0.00 | 0.00 | 0.00 | 61 | 1016.8 |
| 20260509082508 | 64 | 223 | 0.0 | 2.6 | 0.00 | 0.00 | 0.00 | 64 | 1016.7 |
| 20260509082004 | 66 | 32 | 0.9 | 2.6 | 0.00 | 0.00 | 0.00 | 63 | 1016.8 |
| 20260509081502 | 67 | 37 | 2.6 | 2.6 | 0.00 | 0.00 | 0.00 | 62 | 1016.8 |
| 20260509080958 | 66 | 91 | 1.7 | 2.6 | 0.00 | 0.00 | 0.00 | 62 | 1016.9 |
| 20260509080456 | 66 | 344 | 0.0 | 2.6 | 0.00 | 0.00 | 0.00 | 62 | 1016.9 |
| 20260509075954 | 65 | 240 | 0.9 | 2.6 | 0.00 | 0.00 | 0.00 | 61 | 1016.8 |
| 20260509075451 | 64 | 138 | 0.0 | 3.5 | 0.00 | 0.00 | 0.00 | 64 | 1017.1 |
| 20260509074949 | 64 | 235 | 0.9 | 2.6 | 0.00 | 0.00 | 0.00 | 65 | 1017.0 |
| 20260509074446 | 63 | 177 | 0.9 | 3.5 | 0.00 | 0.00 | 0.00 | 68 | 1017.1 |
| 20260509073942 | 62 | 272 | 1.7 | 3.5 | 0.00 | 0.00 | 0.00 | 69 | 1017.4 |
| 20260509073439 | 62 | 346 | 0.9 | 2.6 | 0.00 | 0.00 | 0.00 | 68 | 1017.3 |
| 20260509072935 | 62 | 295 | 2.6 | 4.3 | 0.00 | 0.00 | 0.00 | 68 | 1017.4 |
| 20260509072432 | 61 | 272 | 0.9 | 5.2 | 0.00 | 0.00 | 0.00 | 70 | 1017.3 |
| 20260509071929 | 61 | 334 | 2.6 | 2.6 | 0.00 | 0.00 | 0.00 | 74 | 1017.3 |
| 20260509071426 | 60 | 313 | 0.9 | 3.5 | 0.00 | 0.00 | 0.00 | 75 | 1017.3 |
| 20260509070923 | 60 | 332 | 1.7 | 3.5 | 0.00 | 0.00 | 0.00 | 75 | 1017.4 |
| 20260509070420 | 60 | 328 | 2.6 | 3.5 | 0.00 | 0.00 | 0.00 | 76 | 1017.4 |
| 20260509065915 | 60 | 345 | 1.7 | 4.3 | 0.00 | 0.00 | 0.00 | 75 | 1017.5 |
| 20260509065412 | 60 | 237 | 0.0 | 3.5 | 0.00 | 0.00 | 0.00 | 74 | 1017.5 |
| 20260509064908 | 60 | 343 | 1.7 | 1.7 | 0.00 | 0.00 | 0.00 | 75 | 1017.7 |
| 20260509064406 | 59 | 226 | 3.5 | 4.3 | 0.00 | 0.00 | 0.00 | 75 | 1017.6 |
| 20260509063904 | 59 | 55 | 0.0 | 2.6 | 0.00 | 0.00 | 0.00 | 75 | 1017.6 |
| 20260509063359 | 59 | 272 | 0.9 | 1.7 | 0.00 | 0.00 | 0.00 | 76 | 1017.5 |
| 20260509062856 | 59 | 250 | 0.9 | 4.3 | 0.00 | 0.00 | 0.00 | 76 | 1017.4 |
| 20260509062353 | 58 | 235 | 2.6 | 4.3 | 0.00 | 0.00 | 0.00 | 76 | 1017.6 |
| 20260509061851 | 58 | 302 | 0.9 | 2.6 | 0.00 | 0.00 | 0.00 | 78 | 1017.6 |
| 20260509061349 | 57 | 238 | 2.6 | 6.1 | 0.00 | 0.00 | 0.00 | 79 | 1017.4 |
| 20260509060845 | 56 | 235 | 2.6 | 3.5 | 0.00 | 0.00 | 0.00 | 80 | 1017.4 |
| 20260509060342 | 56 | 228 | 2.6 | 4.3 | 0.00 | 0.00 | 0.00 | 81 | 1017.6 |
| 20260509055837 | 55 | 239 | 1.7 | 3.5 | 0.00 | 0.00 | 0.00 | 80 | 1017.7 |
| 20260509055333 | 55 | 288 | 4.3 | 4.3 | 0.00 | 0.00 | 0.00 | 81 | 1017.9 |
| 20260509054831 | 55 | 267 | 2.6 | 3.5 | 0.00 | 0.00 | 0.00 | 81 | 1017.7 |
| 20260509054327 | 54 | 21 | 0.0 | 5.2 | 0.00 | 0.00 | 0.00 | 82 | 1017.8 |
| 20260509053826 | 53 | 256 | 2.6 | 4.3 | 0.00 | 0.00 | 0.00 | 84 | 1017.6 |
| 20260509053322 | 52 | 237 | 1.7 | 3.5 | 0.00 | 0.00 | 0.00 | 86 | 1017.5 |
| 20260509052821 | 51 | 230 | 1.7 | 3.5 | 0.00 | 0.00 | 0.00 | 88 | 1017.5 |
| 20260509052318 | 50 | 245 | 0.9 | 2.6 | 0.00 | 0.00 | 0.00 | 90 | 1017.6 |
| 20260509051815 | 49 | 217 | 0.9 | 2.6 | 0.00 | 0.00 | 0.00 | 92 | 1017.4 |
| 20260509051314 | 48 | 222 | 1.7 | 2.6 | 0.00 | 0.00 | 0.00 | 95 | 1017.5 |
| 20260509050810 | 47 | 209 | 0.0 | 1.7 | 0.00 | 0.00 | 0.00 | 95 | 1017.6 |
| 20260509050306 | 47 | 149 | 0.0 | 0.9 | 0.00 | 0.00 | 0.00 | 95 | 1017.7 |
| 20260509045804 | 48 | 186 | 0.0 | 1.7 | 0.00 | 0.00 | 0.00 | 95 | 1017.6 |
| 20260509045300 | 48 | 232 | 0.0 | 1.7 | 0.00 | 0.00 | 0.00 | 94 | 1017.7 |
| 20260509044758 | 48 | 238 | 0.9 | 2.6 | 0.00 | 0.00 | 0.00 | 94 | 1017.6 |
| 20260509044255 | 49 | 277 | 0.9 | 2.6 | 0.00 | 0.00 | 0.00 | 94 | 1017.6 |
| 20260509043751 | 49 | 0 | 0.0 | 1.7 | 0.00 | 0.00 | 0.00 | 93 | 1017.6 |
| 20260509043247 | 49 | 245 | 1.7 | 1.7 | 0.00 | 0.00 | 0.00 | 93 | 1017.6 |
| 20260509042743 | 49 | 270 | 0.0 | 1.7 | 0.00 | 0.00 | 0.00 | 93 | 1017.6 |
| 20260509042240 | 49 | 254 | 1.7 | 2.6 | 0.00 | 0.00 | 0.00 | 94 | 1017.7 |
| 20260509041737 | 49 | 252 | 0.0 | 2.6 | 0.00 | 0.00 | 0.00 | 95 | 1017.8 |
| 20260509041234 | 49 | 286 | 0.0 | 1.7 | 0.00 | 0.00 | 0.00 | 94 | 1017.8 |
| 20260509040732 | 49 | 277 | 0.9 | 2.6 | 0.00 | 0.00 | 0.00 | 94 | 1017.6 |
| 20260509040229 | 49 | 346 | 0.0 | 3.5 | 0.00 | 0.00 | 0.00 | 94 | 1017.7 |
| 20260509035726 | 49 | 288 | 1.7 | 2.6 | 0.00 | 0.00 | 0.00 | 94 | 1017.6 |
| 20260509035223 | 49 | 260 | 1.7 | 2.6 | 0.00 | 0.00 | 0.00 | 94 | 1017.7 |
| 20260509034720 | 49 | 248 | 1.7 | 2.6 | 0.00 | 0.00 | 0.00 | 94 | 1017.7 |
| 20260509034217 | 49 | 323 | 1.7 | 2.6 | 0.00 | 0.00 | 0.00 | 94 | 1017.7 |
| 20260509033714 | 49 | 298 | 0.9 | 2.6 | 0.00 | 0.00 | 0.00 | 94 | 1017.5 |
| 20260509033211 | 49 | 208 | 0.0 | 2.6 | 0.00 | 0.00 | 0.00 | 94 | 1017.8 |
| 20260509032708 | 49 | 263 | 0.9 | 1.7 | 0.00 | 0.00 | 0.00 | 94 | 1017.9 |
| 20260509032205 | 50 | 221 | 0.0 | 3.5 | 0.00 | 0.00 | 0.00 | 93 | 1017.9 |
| 20260509031703 | 50 | 311 | 1.7 | 3.5 | 0.00 | 0.00 | 0.00 | 94 | 1017.7 |
| 20260509031200 | 50 | 359 | 0.9 | 1.7 | 0.00 | 0.00 | 0.00 | 94 | 1017.9 |
| 20260509030658 | 50 | 311 | 1.7 | 2.6 | 0.00 | 0.00 | 0.00 | 94 | 1018.0 |
| 20260509030155 | 50 | 240 | 1.7 | 1.7 | 0.00 | 0.00 | 0.00 | 93 | 1018.0 |
| 20260509025651 | 50 | 335 | 0.0 | 1.7 | 0.00 | 0.00 | 0.00 | 93 | 1017.8 |
| 20260509025147 | 50 | 72 | 0.0 | 1.7 | 0.00 | 0.00 | 0.00 | 92 | 1017.7 |
| 20260509024642 | 51 | 331 | 0.9 | 2.6 | 0.00 | 0.00 | 0.00 | 91 | 1017.8 |
| 20260509024139 | 51 | 349 | 0.9 | 1.7 | 0.00 | 0.00 | 0.00 | 89 | 1017.7 |
| 20260509023637 | 52 | 264 | 2.6 | 2.6 | 0.00 | 0.00 | 0.00 | 88 | 1018.0 |
| 20260509023133 | 52 | 243 | 0.9 | 2.6 | 0.00 | 0.00 | 0.00 | 88 | 1017.9 |
| 20260509022629 | 52 | 255 | 2.6 | 4.3 | 0.00 | 0.00 | 0.00 | 89 | 1017.8 |
| 20260509022128 | 51 | 255 | 2.6 | 4.3 | 0.00 | 0.00 | 0.00 | 90 | 1017.9 |
| 20260509021624 | 51 | 249 | 1.7 | 4.3 | 0.00 | 0.00 | 0.00 | 91 | 1017.9 |
| 20260509021121 | 51 | 144 | 0.0 | 1.7 | 0.00 | 0.00 | 0.00 | 92 | 1017.9 |
| 20260509020620 | 51 | 221 | 0.0 | 2.6 | 0.00 | 0.00 | 0.00 | 92 | 1018.0 |
| 20260509020116 | 50 | 262 | 1.7 | 2.6 | 0.00 | 0.00 | 0.00 | 93 | 1018.0 |
| 20260509015615 | 50 | 250 | 2.6 | 2.6 | 0.00 | 0.00 | 0.00 | 94 | 1018.0 |
| 20260509015112 | 50 | 252 | 0.0 | 3.5 | 0.00 | 0.00 | 0.00 | 94 | 1018.2 |
| 20260509014608 | 50 | 294 | 0.9 | 2.6 | 0.00 | 0.00 | 0.00 | 94 | 1018.2 |
| 20260509014105 | 50 | 263 | 1.7 | 2.6 | 0.00 | 0.00 | 0.00 | 95 | 1018.3 |
| 20260509013602 | 50 | 277 | 1.7 | 2.6 | 0.00 | 0.00 | 0.00 | 95 | 1018.1 |
| 20260509013057 | 50 | 254 | 1.7 | 1.7 | 0.00 | 0.00 | 0.00 | 95 | 1018.2 |
| 20260509012555 | 50 | 46 | 0.0 | 1.7 | 0.00 | 0.00 | 0.00 | 94 | 1018.4 |
| 20260509012051 | 50 | 242 | 0.0 | 3.5 | 0.00 | 0.00 | 0.00 | 94 | 1018.4 |
| 20260509011549 | 51 | 246 | 0.0 | 2.6 | 0.00 | 0.00 | 0.00 | 93 | 1018.3 |
| 20260509011046 | 51 | 247 | 1.7 | 2.6 | 0.00 | 0.00 | 0.00 | 93 | 1018.3 |
| 20260509010544 | 52 | 238 | 1.7 | 3.5 | 0.00 | 0.00 | 0.00 | 92 | 1018.4 |
| 20260509010040 | 52 | 255 | 0.9 | 4.3 | 0.00 | 0.00 | 0.00 | 91 | 1018.7 |
| 20260509005538 | 52 | 248 | 0.9 | 3.5 | 0.00 | 0.00 | 0.00 | 92 | 1018.7 |
| 20260509005038 | 52 | 221 | 1.7 | 3.5 | 0.00 | 0.00 | 0.00 | 92 | 1018.6 |
| 20260509004535 | 52 | 228 | 3.5 | 3.5 | 0.00 | 0.00 | 0.00 | 92 | 1018.6 |
| 20260509004032 | 52 | 211 | 0.9 | 4.3 | 0.00 | 0.00 | 0.00 | 91 | 1018.8 |
| 20260509003531 | 52 | 220 | 3.5 | 3.5 | 0.00 | 0.00 | 0.00 | 91 | 1018.7 |
| 20260509003028 | 53 | 245 | 2.6 | 6.1 | 0.00 | 0.00 | 0.00 | 90 | 1018.7 |
| 20260509002525 | 53 | 200 | 3.5 | 4.3 | 0.00 | 0.00 | 0.00 | 90 | 1018.7 |
| 20260509002022 | 53 | 225 | 4.3 | 6.1 | 0.00 | 0.00 | 0.00 | 90 | 1019.0 |
| 20260509001520 | 53 | 260 | 4.3 | 5.2 | 0.00 | 0.00 | 0.00 | 91 | 1019.0 |
| 20260509001015 | 53 | 237 | 4.3 | 4.3 | 0.00 | 0.00 | 0.00 | 90 | 1019.0 |
| 20260509000514 | 53 | 213 | 2.6 | 7.8 | 0.00 | 0.00 | 0.00 | 90 | 1019.0 |
| 20260509000009 | 53 | 248 | 2.6 | 6.1 | 0.00 | 0.00 | 0.00 | 90 | 1019.1 |
| 20260508235508 | 53 | 225 | 6.1 | 7.0 | 0.00 | 0.00 | 0.00 | 90 | 1019.0 |
| 20260508235003 | 53 | 278 | 6.1 | 7.8 | 0.00 | 0.00 | 0.00 | 90 | 1019.2 |
| 20260508234501 | 53 | 234 | 3.5 | 7.0 | 0.00 | 0.00 | 0.00 | 90 | 1019.1 |
| 20260508233958 | 53 | 247 | 2.6 | 6.1 | 0.00 | 0.00 | 0.00 | 90 | 1019.0 |
| 20260508233458 | 53 | 265 | 3.5 | 6.1 | 0.00 | 0.00 | 0.00 | 91 | 1018.9 |
| 20260508232954 | 53 | 247 | 0.9 | 2.6 | 0.00 | 0.00 | 0.00 | 90 | 1019.1 |
| 20260508232451 | 53 | 247 | 2.6 | 5.2 | 0.00 | 0.00 | 0.00 | 90 | 1018.8 |
| 20260508231948 | 53 | 265 | 2.6 | 4.3 | 0.00 | 0.00 | 0.00 | 90 | 1019.1 |
| 20260508231445 | 53 | 270 | 3.5 | 4.3 | 0.00 | 0.00 | 0.00 | 90 | 1019.0 |
| 20260508230942 | 53 | 255 | 5.2 | 5.2 | 0.00 | 0.00 | 0.00 | 90 | 1018.9 |
| 20260508230439 | 53 | 259 | 2.6 | 4.3 | 0.00 | 0.00 | 0.00 | 90 | 1018.9 |
| 20260508225936 | 53 | 271 | 1.7 | 6.1 | 0.00 | 0.00 | 0.00 | 90 | 1018.9 |
| 20260508225433 | 53 | 228 | 2.6 | 5.2 | 0.00 | 0.00 | 0.00 | 90 | 1019.1 |
| 20260508224930 | 53 | 237 | 4.3 | 4.3 | 0.00 | 0.00 | 0.00 | 90 | 1019.2 |
| 20260508224428 | 53 | 225 | 4.3 | 6.1 | 0.00 | 0.00 | 0.00 | 90 | 1019.0 |
| 20260508223925 | 54 | 239 | 2.6 | 7.0 | 0.00 | 0.00 | 0.00 | 89 | 1019.0 |
| 20260508223423 | 54 | 242 | 7.0 | 7.0 | 0.00 | 0.00 | 0.00 | 90 | 1019.1 |
| 20260508222919 | 53 | 250 | 1.7 | 6.1 | 0.00 | 0.00 | 0.00 | 90 | 1019.2 |